Flag for United Arab Emirates Weather past 2 weeks in Ras al-Khaimah, Ras al-Khaimah, United Arab Emirates

Now
72 °F

Clear.


Feels Like: 69 °F
Forecast: 58 / 88 °F
Wind: No wind

Location: Ras Al Khaimah International Airport

Current Time: Mar 28, 2015 at 10:56:28 PM

Latest Report: Mar 28, 2015 at 10:00 PM


Visibility: 10 mi

Pressure: 29.95 "Hg

Humidity: 88%

Dew point: 68 °F

Location of Ras al-KhaimahLocation

Historic Weather in Ras al-Khaimah — Graph

°F

Ras al-Khaimah temperature yesterday

Maximum temperature yesterday: 90 °F (at 12:00 PM)
Minimum temperature yesterday: 66 °F (at 5:00 AM)
Average temperature yesterday: 77 °F

Past Weeks' High & Low Weather Summary

 TemperatureHumidityPressure
High95 °F (Mar 21, 1:00 PM)100% (Mar 25, 4:00 AM)30.09 "Hg (Mar 25, 4:00 AM)
Low52 °F (Mar 14, 7:00 AM)21% (Mar 16, 12:00 PM)29.89 "Hg (Mar 18, 3:00 PM)
Average76 °F57%29.97 "Hg
* Reported Mar 13 9:00 PM — Mar 28 9:00 PM, Ras al-Khaimah, Weather by CustomWeather, © 2015

Note: Actual official high and low records may vary slightly from our data, if they occured in-between our weather recording intervals... More about our weather records

Advertising

Ras al-Khaimah weather history for previous 24 hours

 ConditionsComfort  
Time TempWeatherWind HumidityBarometerVisibility
9:00 PM
Sat, Mar 28
73 °FClear.No wind83%29.95 "Hg10 mi
8:00 PM75 °FClear.2 mph74%29.92 "Hg10 mi
7:00 PM77 °FClear.3 mph69%29.92 "Hg10 mi
6:00 PM79 °FSunny.6 mph70%29.92 "Hg10 mi
5:00 PM82 °FSunny.10 mph58%29.92 "Hg10 mi
4:00 PM84 °FSunny.12 mph55%29.89 "Hg10 mi
3:00 PM84 °FSunny.10 mph51%29.92 "Hg10 mi
2:00 PM86 °FSunny.13 mph49%29.92 "Hg10 mi
1:00 PM86 °FSunny.10 mph49%29.95 "Hg10 mi
12:00 PM88 °FSunny.3 mph43%29.98 "Hg10 mi
11:00 AM84 °FSunny.5 mph48%29.98 "Hg10 mi
10:00 AM81 °FSunny.2 mph58%30.01 "Hg10 mi
9:00 AM77 °FSunny.2 mph69%30.01 "Hg10 mi
8:00 AM72 °FSunny.5 mph88%29.98 "Hg10 mi
7:00 AM66 °FClear.2 mph100%29.98 "Hg5 mi
6:00 AM66 °FClear.2 mph100%29.95 "Hg5 mi
5:00 AM68 °FClear.2 mph94%29.95 "Hg10 mi
4:00 AM70 °FClear.3 mph94%29.95 "Hg10 mi
3:00 AM70 °FClear.3 mph88%29.95 "Hg10 mi
2:00 AM73 °FClear.2 mph83%29.95 "Hg10 mi
1:00 AM73 °FClear.3 mph89%29.98 "Hg10 mi
12:00 AM75 °FClear.6 mph69%29.98 "Hg10 mi
11:00 PM
Fri, Mar 27
73 °FClear.5 mph74%29.95 "Hg10 mi
10:00 PM75 °FClear.No wind69%29.95 "Hg10 mi
Weather by CustomWeather, © 2015

See weather overviewHow to use our weather pages